Location: Newark
(7.1028°S, 35.3258°W)
Time: 02:17:10
(UTC+00:00)

Vanguard 3 - Pass Details

Date: 29 February 2020
Orbit: 508 x 3263 km, 33.4° (Epoch: 08 April)

Event Time Altitude Azimuth Distance (km) Brightness Sun altitude
Rises 20:57:49 0° 273° (W) 6,472 13.9 -5.0°
Reaches altitude 10° 21:02:19 10° 266° (W) 5,738 13.3 -6.1°
Maximum altitude 21:19:15 39° 203° (SSW) 4,261 11.1 -10.3°
Drops below altitude 10° 21:36:15 10° 139° (SE) 5,702 11.1 -14.4°
Sets 21:40:47 0° 130° (SE) 6,423 11.4 -15.5°
